Home > Weather > Mansfield > Past weeks

Flag for USA Weather for the Past 2 Weeks in Mansfield, Texas, USA

Now
72 °F

Sunny.


Feels Like: 77 °F
Forecast: 51 / 81 °F
Wind: 5 mph from North

Location: Burleson-Rendon

Current Time: May 3, 2016 at 7:05:28 PM

Latest Report: May 3, 2016 at 5:46 PM


Visibility: 10 mi

Pressure: 30.04 "Hg

Humidity: 44%

Dew Point: 48 °F

Location of MansfieldLocation

Historic Weather in Mansfield — Graph

°F

Mansfield Temperature Yesterday

Maximum temperature yesterday: 64 °F (at 5:47 PM)
Minimum temperature yesterday: 49 °F (at 11:15 PM)
Average temperature yesterday: 57 °F

High & Low Weather Summary for the Past Weeks

 TemperatureHumidityPressure
High86 °F (Apr 25, 3:54 PM)100% (Apr 19, 6:46 AM)30.18 "Hg (Apr 19, 6:46 AM)
Low45 °F (May 3, 5:55 AM)30% (Apr 27, 2:52 PM)29.53 "Hg (Apr 29, 6:55 PM)
Average66 °F77%29.92 "Hg
* Reported Apr 18 4:53 PM — May 3 4:46 PM, Mansfield, Weather by CustomWeather, © 2016

Note: Actual official high and low records may vary slightly from our data, if they occured in-between our weather recording intervals... More about our weather records

Advertising

Mansfield Weather History for the Previous 24 Hours

Scroll right to see more
 ConditionsComfort  
Time TempWeatherWind HumidityBarometerVisibility
4:46 PM
Tue, May 3
72 °FSunny.6 mph41%30.04 "Hg10 mi
3:46 PM72 °FSunny.8 mph44%30.06 "Hg10 mi
2:47 PM72 °FSunny.8 mph41%30.09 "Hg10 mi
1:48 PM70 °FSunny.5 mph43%30.11 "Hg10 mi
12:47 PM70 °FSunny.6 mph40%30.13 "Hg10 mi
11:47 AM66 °FSunny.8 mph49%30.16 "Hg10 mi
10:48 AM64 °FSunny.6 mph52%30.16 "Hg10 mi
9:46 AM63 °FSunny.No wind59%30.16 "Hg10 mi
8:46 AM55 °FSunny.No wind94%30.15 "Hg10 mi
7:47 AM48 °FSunny.No wind100%30.14 "Hg10 mi
6:46 AM46 °FClear.No wind93%30.12 "Hg10 mi
6:15 AM46 °FClear.No wind95%30.11 "Hg10 mi
5:55 AM45 °FClear.No wind94%30.11 "Hg10 mi
5:35 AM48 °FClear.No wind94%30.10 "Hg10 mi
5:15 AM47 °FClear.No wind97%30.10 "Hg10 mi
4:55 AM46 °FClear.No wind97%30.10 "Hg10 mi
4:15 AM45 °FFog.No wind97%30.10 "Hg5 mi
3:55 AM46 °FClear.3 mph97%30.10 "Hg10 mi
3:15 AM47 °FClear.No wind97%30.10 "Hg10 mi
2:55 AM46 °FFog.No wind96%30.11 "Hg2 mi
2:15 AM47 °FClear.No wind96%30.12 "Hg10 mi
1:55 AM47 °FClear.No wind97%30.12 "Hg10 mi
1:15 AM48 °FClear.No wind94%30.13 "Hg10 mi
12:15 AM49 °FClear.No wind95%30.14 "Hg10 mi
11:55 PM
Mon, May 2
49 °FClear.No wind94%30.14 "Hg7 mi
11:15 PM49 °FClear.No wind95%30.15 "Hg10 mi
10:55 PM51 °FClear.No wind94%30.15 "Hg10 mi
10:15 PM55 °FClear.No wind74%30.14 "Hg10 mi
9:55 PM55 °FClear.No wind74%30.13 "Hg10 mi
9:35 PM56 °FClear.3 mph75%30.13 "Hg10 mi
9:15 PM55 °FClear.No wind77%30.13 "Hg10 mi
8:15 PM57 °FPartly sunny.5 mph75%30.12 "Hg10 mi
7:55 PM60 °FScattered clouds.6 mph67%30.11 "Hg10 mi
Weather by CustomWeather, © 2016

See weather overviewHow to use our weather pages